Hourly Weather Klapka

Today, 25 July, Sunday

Time Temperature Precipitation Wind Pressure Humidity
00:00 +19°C° 0 mm 3 mps 744 mmHg 70%
01:00 +19°C° 0 mm 2 mps 744 mmHg 69%
02:00 +19°C° 0 mm 2 mps 743 mmHg 70%
03:00 +20°C° 0 mm 2 mps 743 mmHg 71%
04:00 +20°C° 0 mm 2 mps 743 mmHg 72%
05:00 +21°C° 0 mm 3 mps 743 mmHg 68%
06:00 +22°C° 0 mm 3 mps 743 mmHg 64%
07:00 +24°C° 0 mm 3 mps 743 mmHg 63%
08:00 +25°C° 0 mm 3 mps 743 mmHg 58%
09:00 +26°C° 0 mm 3 mps 743 mmHg 53%
10:00 +27°C° 0 mm 3 mps 744 mmHg 48%
11:00 +27°C° 0 mm 4 mps 744 mmHg 49%
12:00 +27°C° 0 mm 4 mps 744 mmHg 50%
13:00 +27°C° 0 mm 5 mps 744 mmHg 52%
14:00 +26°C° 0 mm 4 mps 744 mmHg 55%
15:00 +25°C° 0 mm 4 mps 744 mmHg 58%
16:00 +25°C° 0 mm 4 mps 744 mmHg 61%
17:00 +23°C° 0.1 mm 4 mps 744 mmHg 64%
18:00 +22°C° 0.1 mm 4 mps 743 mmHg 67%
19:00 +21°C° 0.1 mm 4 mps 743 mmHg 70%
20:00 +21°C° 0 mm 3 mps 743 mmHg 74%
21:00 +20°C° 0 mm 3 mps 743 mmHg 77%
22:00 +19°C° 0 mm 3 mps 743 mmHg 80%
23:00 +19°C° 0 mm 3 mps 742 mmHg 81%

Tomorrow, 26 July, Monday

Time Temperature Precipitation Wind Pressure Humidity
00:00 +18°C° 0 mm 3 mps 742 mmHg 81%
01:00 +18°C° 0 mm 2 mps 742 mmHg 81%
02:00 +18°C° 0 mm 2 mps 742 mmHg 82%
03:00 +18°C° 0 mm 2 mps 742 mmHg 83%
04:00 +17°C° 0 mm 2 mps 742 mmHg 84%
05:00 +19°C° 0 mm 2 mps 742 mmHg 80%
06:00 +20°C° 0 mm 2 mps 742 mmHg 76%
07:00 +21°C° 0 mm 2 mps 742 mmHg 72%
08:00 +23°C° 0 mm 2 mps 742 mmHg 70%
09:00 +24°C° 0 mm 2 mps 742 mmHg 67%
10:00 +25°C° 0 mm 2 mps 743 mmHg 64%
11:00 +26°C° 0.1 mm 2 mps 743 mmHg 62%
12:00 +26°C° 0.1 mm 3 mps 743 mmHg 60%
13:00 +27°C° 0.1 mm 3 mps 743 mmHg 58%
14:00 +27°C° 0.1 mm 2 mps 743 mmHg 58%
15:00 +27°C° 0.1 mm 2 mps 742 mmHg 58%
16:00 +27°C° 0.1 mm 2 mps 742 mmHg 59%
17:00 +27°C° 0 mm 2 mps 742 mmHg 62%
18:00 +26°C° 0 mm 2 mps 742 mmHg 65%
19:00 +26°C° 0 mm 2 mps 742 mmHg 68%
20:00 +25°C° 0 mm 2 mps 742 mmHg 69%
21:00 +24°C° 0 mm 2 mps 742 mmHg 69%
22:00 +23°C° 0 mm 2 mps 742 mmHg 70%
23:00 +23°C° 0 mm 2 mps 742 mmHg 71%

Day after tomorrow, 27 July, Tuesday

Time Temperature Precipitation Wind Pressure Humidity
00:00 +21°C° 0 mm 2 mps 742 mmHg 72%
01:00 +21°C° 0 mm 2 mps 742 mmHg 73%
02:00 +20°C° 0 mm 2 mps 742 mmHg 75%
03:00 +20°C° 0 mm 2 mps 743 mmHg 77%
04:00 +19°C° 0 mm 2 mps 743 mmHg 79%
05:00 +20°C° 0 mm 3 mps 743 mmHg 78%
06:00 +20°C° 0 mm 3 mps 743 mmHg 78%
07:00 +21°C° 0 mm 4 mps 744 mmHg 78%
08:00 +21°C° 0 mm 4 mps 744 mmHg 75%
09:00 +22°C° 0 mm 4 mps 744 mmHg 72%
10:00 +23°C° 0 mm 4 mps 744 mmHg 69%
11:00 +26°C° 0 mm 3 mps 744 mmHg 65%
12:00 +27°C° 0 mm 3 mps 744 mmHg 60%
13:00 +28°C° 0 mm 3 mps 744 mmHg 55%
14:00 +29°C° 0.1 mm 3 mps 744 mmHg 52%
15:00 +29°C° 0.1 mm 3 mps 744 mmHg 48%
16:00 +30°C° 0.1 mm 3 mps 744 mmHg 44%
17:00 +29°C° 0 mm 2 mps 744 mmHg 48%
18:00 +27°C° 0 mm 2 mps 744 mmHg 52%
19:00 +26°C° 0 mm 2 mps 744 mmHg 56%
20:00 +26°C° 0 mm 2 mps 744 mmHg 57%
21:00 +25°C° 0 mm 2 mps 744 mmHg 58%
22:00 +24°C° 0 mm 2 mps 744 mmHg 59%
23:00 +24°C° 0 mm 2 mps 744 mmHg 61%

28 July, Wednesday

Time Temperature Precipitation Wind Pressure Humidity
00:00 +23°C° 0 mm 2 mps 744 mmHg 63%
01:00 +21°C° 0 mm 2 mps 744 mmHg 65%
02:00 +21°C° 0 mm 2 mps 744 mmHg 67%
03:00 +20°C° 0 mm 2 mps 744 mmHg 70%
04:00 +20°C° 0 mm 2 mps 744 mmHg 73%
05:00 +21°C° 0 mm 2 mps 744 mmHg 70%
06:00 +23°C° 0 mm 2 mps 744 mmHg 67%
07:00 +24°C° 0 mm 2 mps 744 mmHg 65%
08:00 +26°C° 0 mm 2 mps 744 mmHg 59%
09:00 +27°C° 0 mm 2 mps 744 mmHg 54%
10:00 +29°C° 0 mm 2 mps 744 mmHg 48%
11:00 +29°C° 0 mm 2 mps 744 mmHg 46%
12:00 +30°C° 0 mm 2 mps 744 mmHg 43%
13:00 +30°C° 0 mm 2 mps 744 mmHg 40%
14:00 +29°C° 0 mm 3 mps 744 mmHg 44%
15:00 +28°C° 0 mm 5 mps 744 mmHg 47%
16:00 +27°C° 0 mm 6 mps 744 mmHg 50%
17:00 +25°C° 0.1 mm 5 mps 744 mmHg 59%
18:00 +22°C° 0.1 mm 5 mps 744 mmHg 69%
19:00 +20°C° 0.1 mm 4 mps 744 mmHg 78%
20:00 +20°C° 0.4 mm 4 mps 745 mmHg 82%
21:00 +19°C° 0.4 mm 3 mps 745 mmHg 85%
22:00 +19°C° 0.4 mm 3 mps 745 mmHg 89%
23:00 +19°C° 0.3 mm 2 mps 745 mmHg 90%

29 July, Thursday

Time Temperature Precipitation Wind Pressure Humidity
00:00 +19°C° 0.3 mm 2 mps 745 mmHg 91%
01:00 +18°C° 0.3 mm 2 mps 745 mmHg 92%
02:00 +18°C° 0 mm 2 mps 745 mmHg 93%
03:00 +17°C° 0 mm 2 mps 746 mmHg 94%
04:00 +16°C° 0 mm 2 mps 746 mmHg 95%
05:00 +17°C° 0 mm 2 mps 746 mmHg 90%
06:00 +18°C° 0 mm 2 mps 746 mmHg 85%
07:00 +19°C° 0 mm 2 mps 746 mmHg 81%
08:00 +21°C° 0 mm 2 mps 746 mmHg 73%
09:00 +24°C° 0 mm 2 mps 746 mmHg 66%
10:00 +25°C° 0 mm 2 mps 746 mmHg 59%
11:00 +26°C° 0 mm 2 mps 746 mmHg 54%
12:00 +27°C° 0 mm 2 mps 746 mmHg 50%
13:00 +28°C° 0 mm 2 mps 745 mmHg 45%
14:00 +29°C° 0 mm 2 mps 745 mmHg 43%
15:00 +29°C° 0 mm 2 mps 745 mmHg 42%
16:00 +29°C° 0 mm 2 mps 744 mmHg 40%
17:00 +28°C° 0 mm 2 mps 744 mmHg 44%
18:00 +27°C° 0 mm 1 mps 744 mmHg 48%
19:00 +26°C° 0 mm 1 mps 744 mmHg 53%
20:00 +25°C° 0 mm 2 mps 744 mmHg 54%
21:00 +24°C° 0 mm 2 mps 744 mmHg 56%
22:00 +23°C° 0 mm 2 mps 744 mmHg 58%
23:00 +23°C° 0 mm 2 mps 743 mmHg 60%

30 July, Friday

Time Temperature Precipitation Wind Pressure Humidity
00:00 +21°C° 0 mm 3 mps 743 mmHg 62%
01:00 +21°C° 0 mm 3 mps 743 mmHg 65%
02:00 +20°C° 0 mm 3 mps 743 mmHg 68%
03:00 +20°C° 0 mm 3 mps 742 mmHg 71%
04:00 +20°C° 0 mm 3 mps 742 mmHg 74%
05:00 +21°C° 0 mm 3 mps 742 mmHg 71%
06:00 +22°C° 0 mm 4 mps 742 mmHg 69%
07:00 +23°C° 0 mm 4 mps 742 mmHg 67%
08:00 +26°C° 0 mm 4 mps 742 mmHg 59%
09:00 +28°C° 0 mm 5 mps 742 mmHg 52%
10:00 +30°C° 0 mm 5 mps 741 mmHg 44%
11:00 +30°C° 0 mm 5 mps 741 mmHg 44%
12:00 +32°C° 0 mm 5 mps 741 mmHg 44%
13:00 +32°C° 0 mm 4 mps 741 mmHg 44%
14:00 +32°C° 0 mm 5 mps 740 mmHg 46%
15:00 +30°C° 0 mm 5 mps 740 mmHg 48%
16:00 +30°C° 0 mm 5 mps 740 mmHg 49%
17:00 +28°C° 0.1 mm 5 mps 740 mmHg 57%
18:00 +27°C° 0.1 mm 4 mps 740 mmHg 65%
19:00 +25°C° 0.1 mm 4 mps 741 mmHg 72%
20:00 +24°C° 0.1 mm 3 mps 741 mmHg 77%
21:00 +23°C° 0.1 mm 2 mps 741 mmHg 81%
22:00 +22°C° 0.1 mm 1 mps 741 mmHg 85%
23:00 +21°C° 0 mm 1 mps 741 mmHg 85%
Show more